Other Surface Observations
Issued by NWS Charleston, SC

Home | Current Version | Previous Version | Text Only | Print | Product List | Glossary On
Versions: 1 2 3 4 5 6 7 8 9 10 11 12 13 14 15 16 17 18 19 20 21 22 23 24 25 26 27 28 29 30 31 32 33 34 35 36 37 38 39 40 41 42 43 44 45 46 47 48 49 50
000
SXUS52 KCHS 231913
OSOCHS

MARINE OBSERVATIONS
NATIONAL WEATHER SERVICE CHARLESTON SC
300 PM EDT SAT JUL 23 2016

...DOWNTOWN CHARLESTON AND HARBOR...

CITY           SKY/WX    TMP DP  RH WIND       PRES   REMARKS
WATERFRONT PRK   N/A     87  78  74 S10       29.98F HX 100

...LAKE MOULTRIE...

CITY           SKY/WX    TMP DP  RH WIND       PRES   REMARKS
PINOPOLIS        N/A     91  73  55 CALM      29.90F HX 100

...LAKE AND SUPPLEMENTAL COASTAL OBSERVATIONS...

STATION/POSITION TIME  TEMP    WIND        PRES    WAVE   SWELL
                       AIR SEA DIR/SP/G            HT/PER HT/PER/DIR
                 (UTC) (F)     (DEG/KT/KT) (MB)    (FT/S) (FT/S/D)
FORT PULASKI     1800   89 88  170/  6/ 11 1016.8F
SAPELO ISLAND    1800   94     180/  7     1017.0S
WINYAH BAY       NOT AVBL
LAKE MURRAY      1800   90     220/  6/  8 1014.6F
ACE BASIN NERRS  NOT AVBL


...C-MAN AND BUOY OBSERVATIONS...

STATION/POSITION TIME  TEMP    WIND        PRES    WAVE   SWELL
                       AIR SEA DIR/SP/G            HT/PER HT/PER/DIR
                 (UTC) (F)     (DEG/KT/KT) (MB)    (FT/S) (FT/S/D)
BUOY 41004       1850   84 86  150/  6/  6 1016.0F   3/ 8   3/110/ 8
BUOY 41008       1850   85 88  170/ 10/ 12 1016.4F   2/ 9   2/110/ 9
FOLLY BEACH CMAN 1800   86     190/ 11/ 12 1016.7F
CAPERS NS BUOY   1808   84 85  190/ 12/ 16 1016.4F
FRIPP NS BUOY    1808   86 87  190/ 10/ 12 1015.8F
5E ST. MARYS GA  1901      87                N/A     2/ 9


STATION/POSITION TIME  TEMP    WIND        PRES    WAVE   SWELL
                       AIR SEA DIR/SP/G            HT/PER HT/PER/DIR
                 (UTC) (F)     (DEG/KT/KT) (MB)    (FT/S) (FT/S/D)
FRYING PAN BUOY  1800   83 86  220/  4/  6 1016.5S
BUOY 41025       1850   85 86  220/ 12/ 14 1016.3F   2/ 9   2/ 90/ 9
CAPE LOOKOUT NC  1800   85     220/  7/ 10 1016.2S
BUOY 41002       1850   83 87   20/  2/  4 1017.2F   3/ 8   3/110/ 8
BUOY 41010       1820   85 88  350/  4/  6 1017.3F
ST AUGUSTINE FL  1900   84 88   90/  7/  8 1017.4F

$$




USA.gov is the U.S. government's official web portal to all federal, state and local government web resources and services.